Date String (YYYY-MM-DD hh:mm:ss) UTC,Instrument flags,Ambient pressure (hPa),Sample flow (lpm),Bypass flow (lpm),Sample temperature (°C),Ambient temperature (°C),ASC tube jacket temperature (°C),LED temperature (°C),Box temperature (°C),Sample RH (%),Span deviation,Mass concentration (μg/m³),Mass concentration (μg/m³),Mass concentration (μg/m³)
DateTimeUTC,F1_M11,P_M11,Q1_M11,Q2_M11,T1_M11,T2_M11,T3_M11,T4_M11,T5_M11,U1_M11,ZSPAN_M11,X0_M11,X2_M11,X1_M11
2022-11-13 08:00:00,,0821.6,5.01,0.00,22.4,21.4,00.0,31.2,24.2,07.7,0003.6,0010.95,0005.52,0005.10
2022-11-13 08:01:00,,0821.6,4.99,0.00,22.4,21.3,00.0,31.2,24.2,07.7,0003.5,0010.89,0005.58,0005.12
2022-11-13 08:02:00,,0821.5,5.00,0.00,22.4,21.1,00.0,31.2,24.2,07.8,0003.4,0010.92,0005.64,0005.17
2022-11-13 08:03:00,,0821.5,4.99,0.00,22.3,21.0,00.0,31.2,24.2,07.8,0003.8,0010.75,0005.69,0005.21
2022-11-13 08:04:00,,0821.5,5.00,0.00,22.3,20.9,00.0,31.2,24.1,07.6,0003.6,0010.77,0005.68,0005.20
2022-11-13 08:05:00,,0821.5,5.01,0.00,22.3,20.8,00.0,31.2,24.1,07.7,0003.2,0010.35,0005.64,0005.16
2022-11-13 08:06:00,,0821.5,5.00,0.00,22.3,20.8,00.0,31.2,24.1,07.7,0002.8,0010.18,0005.58,0005.12
2022-11-13 08:07:00,,0821.5,5.00,0.00,22.3,20.7,00.0,31.2,24.0,07.8,0002.4,0010.04,0005.54,0005.10
2022-11-13 08:08:00,,0821.4,5.00,0.00,22.2,20.7,00.0,31.2,24.0,07.8,0001.1,0009.77,0005.53,0005.09
2022-11-13 08:09:00,,0821.4,5.00,0.00,22.2,20.6,00.0,31.2,24.0,07.8,-000.4,0009.91,0005.53,0005.08
2022-11-13 08:10:00,,0821.4,5.00,0.00,22.2,20.6,00.0,31.1,24.0,07.6,-000.4,0009.92,0005.51,0005.08
2022-11-13 08:11:00,,0821.4,4.99,0.00,22.2,20.6,00.0,31.1,24.0,07.7,-000.9,0009.97,0005.49,0005.04
2022-11-13 08:12:00,,0821.4,5.00,0.00,22.2,21.3,00.0,31.1,24.1,07.8,-001.0,0010.40,0005.45,0004.99
2022-11-13 08:13:00,,0821.4,4.99,0.00,22.3,22.1,00.0,31.1,24.3,07.8,-001.0,0010.49,0005.36,0004.91
2022-11-13 08:14:00,,0821.4,5.00,0.00,22.4,22.1,00.0,31.1,24.4,07.5,-001.8,0010.81,0005.29,0004.82
2022-11-13 08:15:00,,0821.4,5.00,0.00,22.4,21.7,00.0,31.1,24.3,07.4,-001.8,0010.84,0005.25,0004.79
2022-11-13 08:16:00,,0821.4,5.01,0.00,22.4,21.5,00.0,31.2,24.3,07.4,-001.6,0010.76,0005.29,0004.80
2022-11-13 08:17:00,,0821.4,5.00,0.00,22.4,21.3,00.0,31.2,24.2,07.5,-001.5,0010.86,0005.33,0004.81
2022-11-13 08:18:00,,0821.4,4.99,0.00,22.3,21.1,00.0,31.2,24.2,07.6,-001.2,0011.13,0005.37,0004.84
2022-11-13 08:19:00,,0821.4,4.99,0.00,22.3,21.0,00.0,31.2,24.2,07.6,-000.4,0011.63,0005.38,0004.88
2022-11-13 08:20:00,,0821.4,5.00,0.00,22.3,21.0,00.0,31.2,24.1,07.7,0000.5,0011.64,0005.43,0004.92
2022-11-13 08:21:00,,0821.3,4.99,0.00,22.3,20.9,00.0,31.2,24.1,07.8,0000.9,0011.98,0005.55,0005.00
2022-11-13 08:22:00,,0821.3,5.00,0.00,22.3,20.8,00.0,31.2,24.1,07.8,0001.7,0012.35,0005.64,0005.07
2022-11-13 08:23:00,,0821.3,5.01,0.00,22.3,20.8,00.0,31.2,24.1,07.9,0000.8,0012.68,0005.69,0005.13
2022-11-13 08:24:00,,0821.4,5.00,0.00,22.2,20.8,00.0,31.2,24.0,08.0,0000.7,0013.35,0005.79,0005.22
2022-11-13 08:25:00,,0821.3,5.00,0.00,22.2,20.7,00.0,31.1,24.0,08.3,0000.4,0013.26,0005.94,0005.36
2022-11-13 08:26:00,,0821.4,5.00,0.00,22.2,20.7,00.0,31.1,24.0,08.4,0000.8,0013.48,0006.15,0005.52
2022-11-13 08:27:00,,0821.4,5.00,0.00,22.2,20.7,00.0,31.1,24.0,08.4,0001.3,0013.64,0006.30,0005.67
2022-11-13 08:28:00,,0821.4,5.00,0.00,22.2,20.7,00.0,31.1,24.0,08.2,0000.8,0013.73,0006.42,0005.78
2022-11-13 08:29:00,,0821.3,5.00,0.00,22.2,21.3,00.0,31.1,24.1,08.0,0000.7,0014.39,0006.53,0005.85
2022-11-13 08:30:00,,0821.3,5.01,0.00,22.3,22.1,00.0,31.1,24.3,07.5,0001.2,0014.36,0006.48,0005.81
2022-11-13 08:31:00,,0821.3,5.01,0.00,22.4,22.1,00.0,31.1,24.4,07.5,0001.7,0013.96,0006.40,0005.75
2022-11-13 08:32:00,,0821.2,5.00,0.00,22.4,21.8,00.0,31.1,24.3,07.4,0002.0,0013.48,0006.31,0005.66
2022-11-13 08:33:00,,0821.2,5.00,0.00,22.4,21.5,00.0,31.1,24.3,07.7,0000.9,0013.17,0006.27,0005.63
2022-11-13 08:34:00,,0821.3,5.00,0.00,22.4,21.4,00.0,31.2,24.2,07.8,0001.4,0012.28,0006.23,0005.62
2022-11-13 08:35:00,,0821.3,5.00,0.00,22.3,21.2,00.0,31.2,24.2,07.6,0002.1,0011.50,0006.16,0005.54
2022-11-13 08:36:00,,0821.3,4.98,0.00,22.3,21.1,00.0,31.2,24.1,07.4,0002.6,0011.04,0006.01,0005.41
2022-11-13 08:37:00,,0821.2,5.00,0.00,22.3,21.0,00.0,31.2,24.1,07.4,0003.2,0010.69,0005.81,0005.25
2022-11-13 08:38:00,,0821.2,5.01,0.00,22.3,20.9,00.0,31.2,24.1,07.5,0003.3,0010.46,0005.61,0005.08
2022-11-13 08:39:00,,0821.3,5.00,0.00,22.3,20.8,00.0,31.1,24.0,07.5,0003.5,0010.38,0005.46,0004.97
2022-11-13 08:40:00,,0821.3,5.01,0.00,22.2,20.8,00.0,31.1,24.0,07.3,0003.7,0009.47,0005.25,0004.81
2022-11-13 08:41:00,,0821.2,5.00,0.00,22.2,20.7,00.0,31.1,24.0,07.3,0003.6,0008.81,0005.22,0004.78
2022-11-13 08:42:00,,0821.2,4.99,0.00,22.2,20.6,00.0,31.1,24.0,07.4,0003.6,0008.90,0005.22,0004.78
2022-11-13 08:43:00,,0821.2,4.99,0.00,22.2,20.6,00.0,31.1,23.9,07.4,0003.2,0008.98,0005.22,0004.79
2022-11-13 08:44:00,,0821.2,4.99,0.00,22.2,20.9,00.0,31.1,24.0,07.5,0003.1,0009.44,0005.20,0004.78
2022-11-13 08:45:00,,0821.3,5.01,0.00,22.3,21.8,00.0,31.0,24.2,07.5,0003.0,0010.18,0005.21,0004.74
2022-11-13 08:46:00,,0821.3,5.01,0.00,22.4,22.3,00.0,31.1,24.4,07.6,0002.3,0010.34,0005.23,0004.77
2022-11-13 08:47:00,,0821.2,5.00,0.00,22.4,22.0,00.0,31.1,24.4,07.6,0001.8,0011.89,0005.31,0004.83
2022-11-13 08:48:00,,0821.2,5.00,0.00,22.4,21.6,00.0,31.1,24.3,07.6,0001.1,0012.55,0005.37,0004.89
2022-11-13 08:49:00,,0821.2,5.01,0.00,22.4,21.4,00.0,31.2,24.3,07.5,0001.6,0012.60,0005.42,0004.93
2022-11-13 08:50:00,,0821.2,4.99,0.00,22.4,21.2,00.0,31.2,24.2,07.6,0001.9,0012.93,0005.43,0004.95
2022-11-13 08:51:00,,0821.2,5.01,0.00,22.3,21.0,00.0,31.2,24.2,07.4,0002.2,0013.05,0005.47,0004.99
2022-11-13 08:52:00,,0821.1,4.98,0.00,22.3,20.9,00.0,31.2,24.1,07.2,0002.5,0013.03,0005.45,0005.00
2022-11-13 08:53:00,,0821.1,5.00,0.00,22.3,20.9,00.0,31.2,24.1,07.1,0002.5,0012.91,0005.43,0004.97
2022-11-13 08:54:00,,0821.1,5.00,0.00,22.3,20.8,00.0,31.2,24.1,07.1,0002.7,0012.90,0005.41,0004.94
2022-11-13 08:55:00,,0821.1,5.00,0.00,22.3,20.8,00.0,31.2,24.0,07.3,0002.7,0012.50,0005.40,0004.93
2022-11-13 08:56:00,,0821.1,5.00,0.00,22.3,20.8,00.0,31.1,24.0,07.3,0003.0,0011.73,0005.36,0004.89
2022-11-13 08:57:00,,0821.1,5.01,0.00,22.2,20.7,00.0,31.1,24.0,07.5,0002.5,0011.57,0005.32,0004.86
2022-11-13 08:58:00,,0821.1,5.00,0.00,22.2,20.7,00.0,31.1,24.0,07.7,0001.5,0010.06,0005.30,0004.87
2022-11-13 08:59:00,,0821.1,4.99,0.00,22.2,20.7,00.0,31.1,24.0,07.8,0001.8,0009.55,0005.34,0004.90
